Location: Vinland
(47.7731°N, 122.6974°W)
Time: 21:53:23
(UTC+00:00)

S-56A Canister/Altair - Pass Details

Date: 03 April 2023
Orbit: 639 x 2492 km, 38.9° (Epoch: 01 June)

Event Time Altitude Azimuth Distance (km) Brightness Sun altitude
Rises 05:35:34 0° 276° (W) 5,217 12.5 -26.6°
Reaches altitude 10° 05:38:56 10° 270° (W) 4,443 11.9 -27.0°
Maximum altitude 05:50:26 41° 206° (SSW) 3,124 10.3 -28.3°
Enters shadow 05:54:48 35° 174° (S) 3,475 10.3 -28.8°
